User: anonymous   Login
Location: Unspecified
(0.0000°N, 0.0000°E)
Time: 19:59:16
(UTC+00:00)
Language:

Kosmos-1667 - Orbit

View from above orbital plane
View from above orbital plane
View from above satellite
View from above satellite

Ground track
Ground track

The orbit data is extracted from the following two-line orbital elements,

1 15891U 85059  A 85197.89068985  .00062907 +00000-0 +46079-4 0 00102
2 15891 082.3543 355.4398 0043293 076.4179 284.1335 16.13353075001093
Epoch (UTC): 16 July 1985 21:22:35
Eccentricity: 0.0043293
inclination: 82.3543°
perigee height: 209 km
apogee height: 266 km
right ascension of ascending node: 355.4398°
argument of perigee: 76.4179°
revolutions per day: 16.13353075
mean anomaly at epoch: 284.1335°
orbit number at epoch: 109

The dashed part of the orbit path shows where the satellite is in the earth's shadow,  

DLR